Location: LDNL
(36.4545°S, 141.6685°E)
Time: 11:37:21
(UTC+10:00)

Explorer 11/Cluster Stage 4 - Visible Passes

Search period start: 08 August 2022 00:00
Search period end: 18 August 2022 00:00
Orbit: 467 x 1250 km, 28.8° (Epoch: 07 August)

Date Brightness Start Highest point End Pass type
(mag) Time Alt. Az. Time Alt. Az. Time Alt. Az.
08 Aug 9.7 03:23:00 11° ENE 03:23:00 11° ENE 03:23:09 10° ENE visible
08 Aug 7.9 05:05:02 35° NNW 05:05:02 35° NNW 05:10:35 10° NE visible
08 Aug 8.8 06:49:20 10° WNW 06:52:40 14° NNW 06:55:42 10° N visible
09 Aug 8.1 04:53:33 32° N 04:53:33 32° N 04:58:24 10° NE visible
09 Aug 8.9 06:37:21 10° WNW 06:40:21 13° NNW 06:43:07 10° N visible
10 Aug 8.4 04:42:06 28° N 04:42:06 28° N 04:46:10 10° NE visible
10 Aug 9.0 06:25:28 10° NW 06:27:59 12° NW 06:30:22 10° NNW visible
11 Aug 8.7 04:30:41 24° NNE 04:30:41 24° NNE 04:33:51 10° NE visible
11 Aug 9.1 06:13:52 10° NW 06:15:37 11° NW 06:17:18 10° NNW visible
12 Aug 9.0 04:19:19 19° NNE 04:19:19 19° NNE 04:21:30 10° NNE visible
13 Aug 9.4 04:07:58 14° NNE 04:07:58 14° NNE 04:09:04 10° NNE visible
14 Aug 9.1 20:20:39 10° N 20:21:13 11° N 20:21:13 11° N visible
15 Aug 8.8 20:08:07 10° N 20:09:56 15° N 20:09:56 15° N visible
16 Aug 8.5 19:55:41 10° N 19:58:38 17° NNE 19:58:38 17° NNE visible
17 Aug 8.3 19:43:19 10° NNW 19:47:08 19° NNE 19:47:18 19° NNE visible
17 Aug 9.5 21:29:19 10° NW 21:29:21 10° NW 21:29:21 10° NW visible
